This demonstration page uses our WeatherBlox Daily Observations layout. Learn more.

Left ArrowRight Arrow

Hourly Observations for March 16, 2019

Temp ( °F °C ) Dew Point ( °F °C ) Humidity (%) Winds ( mph kmh ) Pressure ( in mb ) Visibility ( mi km ) Precip ( " mm )
12:51 am 00:51 Clear 52 11.1 26 -3.3 37 37 ESE 12 19 30.08 1019 10 16 N/A
1:51 am 01:51 Partly Cloudy 51 10.6 27 -2.8 39 39 ESE 10 17 30.07 1018 10 16 N/A
2:51 am 02:51 Mostly Clear 50 10 26 -3.3 39 39 ESE 10 17 30.07 1018 10 16 N/A
3:51 am 03:51 Clear 49 9.4 28 -2.2 44 44 E 9 15 30.06 1018 10 16 N/A
4:51 am 04:51 Clear 48 8.9 28 -2.2 46 46 SSE 10 17 30.08 1019 10 16 N/A
5:51 am 05:51 Cloudy 47 8.3 26 -3.3 44 44 SSE 9 15 30.14 1021 10 16 N/A
6:51 am 06:51 Mostly Cloudy 48 8.9 25 -3.9 41 41 E 16 26 30.12 1020 10 16 N/A
6:59 am 06:59 Partly Cloudy 47 8.3 25 -3.9 42 42 ESE 12 19 30.19 1022 10 16 N/A
7:51 am 07:51 Mostly Sunny 48 8.9 26 -3.3 42 42 SSE 10 17 30.16 1021 10 16 N/A
8:51 am 08:51 Sunny 48 8.9 35 1.7 61 61 S 21 33 30.21 1023 10 16 N/A
9:51 am 09:51 Mostly Cloudy 49 9.4 36 2.2 61 61 S 14 22 30.23 1024 10 16 N/A
10:51 am 10:51 Cloudy 51 10.6 37 2.8 59 59 ESE 20 31 30.22 1023 10 16 N/A
11:51 am 11:51 Cloudy 51 10.6 37 2.8 59 59 ESE 13 20 30.20 1023 10 16 N/A
12:51 pm 12:51 Mostly Cloudy 54 12.2 37 2.8 53 53 SE 16 26 30.16 1021 10 16 N/A
1:51 pm 13:51 Sunny 55 12.8 38 3.3 53 53 ESE 15 24 30.14 1021 10 16 N/A
2:51 pm 14:51 Sunny 55 12.8 38 3.3 53 53 SE 15 24 30.12 1020 10 16 N/A
3:51 pm 15:51 Sunny 54 12.2 39 3.9 57 57 SSE 15 24 30.11 1020 10 16 N/A
4:51 pm 16:51 Sunny 53 11.7 39 3.9 59 59 S 15 24 30.11 1020 10 16 N/A
5:51 pm 17:51 Sunny 53 11.7 38 3.3 57 57 S 16 26 30.12 1020 10 16 N/A
6:51 pm 18:51 Clear 50 10 38 3.3 63 63 SSE 12 19 30.13 1020 10 16 N/A
7:51 pm 19:51 Clear 48 8.9 38 3.3 68 68 ESE 9 15 30.16 1021 10 16 N/A
8:51 pm 20:51 Clear 47 8.3 38 3.3 71 71 ESE 9 15 30.19 1022 10 16 N/A
9:51 pm 21:51 Clear 44 6.7 38 3.3 79 79 SE 8 13 30.20 1023 10 16 N/A
10:51 pm 22:51 Clear 43 6.1 38 3.3 82 82 ESE 8 13 30.21 1023 10 16 N/A
11:51 pm 23:51 Clear 43 6.1 38 3.3 82 82 SE 9 15 30.21 1023 10 16 N/A

Powered by AerisWeather